Location: Brad
(46.1333°N, 22.7833°E)
Time: 04:51:58
(UTC+00:00)

Cosmos 1943 Rocket - Pass Details

Date: 03 February 2023
Orbit: 811 x 844 km, 71.0° (Epoch: 29 March)

Event Time Altitude Azimuth Distance (km) Brightness Sun altitude
Rises 18:54:40 0° 338° (NNW) 3,413 5.8 -34.5°
Reaches altitude 10° 18:57:19 10° 346° (NNW) 2,474 4.9 -34.9°
Enters shadow 18:58:23 15° 352° (N) 2,123 4.4 -35.1°
